TimeCST,TemperatureF,Dew PointF,Humidity,Sea Level PressureIn,VisibilityMPH,Wind Direction,Wind SpeedMPH,Gust SpeedMPH,PrecipitationIn,Events,Conditions,WindDirDegrees,DateUTC
12:22 AM,64.4,62.6,94,30.15,10.0,SW,8.1,-,N/A,,Overcast,220,2012-03-09 06:22:00
12:33 AM,64.4,62.6,94,30.15,10.0,SW,6.9,-,N/A,,Overcast,220,2012-03-09 06:33:00
12:55 AM,63.3,62.4,97,30.14,10.0,South,8.1,-,N/A,,Overcast,190,2012-03-09 06:55:00
1:16 AM,62.6,62.6,100,30.13,10.0,South,6.9,-,N/A,,Overcast,190,2012-03-09 07:16:00
1:38 AM,62.6,62.6,100,30.12,6.0,South,5.8,-,N/A,,Overcast,190,2012-03-09 07:38:00
1:55 AM,63.1,62.6,98,30.12,5.0,South,8.1,-,N/A,,Overcast,190,2012-03-09 07:55:00
2:20 AM,62.6,62.6,100,30.13,10.0,SW,6.9,-,N/A,,Overcast,230,2012-03-09 08:20:00
2:27 AM,62.6,62.6,100,30.13,10.0,SW,8.1,-,N/A,,Overcast,220,2012-03-09 08:27:00
2:55 AM,63.0,62.4,98,30.14,10.0,WSW,5.8,-,N/A,,Overcast,240,2012-03-09 08:55:00
3:35 AM,62.6,62.6,100,30.14,8.0,Calm,Calm,-,N/A,,Scattered Clouds,0,2012-03-09 09:35:00
3:55 AM,61.5,61.0,98,30.14,10.0,Calm,Calm,-,N/A,,Clear,0,2012-03-09 09:55:00
4:03 AM,60.8,60.8,100,30.14,2.5,Calm,Calm,-,N/A,,Clear,0,2012-03-09 10:03:00
4:04 AM,60.8,60.8,100,30.14,1.8,Calm,Calm,-,N/A,,Clear,0,2012-03-09 10:04:00
4:06 AM,60.8,60.8,100,30.15,1.2,Calm,Calm,-,N/A,,Clear,0,2012-03-09 10:06:00
4:13 AM,60.8,60.8,100,30.15,2.0,Calm,Calm,-,N/A,,Partly Cloudy,0,2012-03-09 10:13:00
4:14 AM,60.8,60.8,100,30.15,3.0,Calm,Calm,-,N/A,,Partly Cloudy,0,2012-03-09 10:14:00
4:23 AM,60.8,60.8,100,30.15,10.0,WNW,4.6,-,N/A,,Mostly Cloudy,300,2012-03-09 10:23:00
4:27 AM,62.6,60.8,94,30.15,10.0,WNW,3.5,-,N/A,,Mostly Cloudy,290,2012-03-09 10:27:00
4:55 AM,62.4,62.1,99,30.16,9.0,Calm,Calm,-,N/A,,Overcast,0,2012-03-09 10:55:00
4:57 AM,62.6,62.6,100,30.16,9.0,Calm,Calm,-,N/A,,Overcast,0,2012-03-09 10:57:00
5:14 AM,62.6,62.6,100,30.17,10.0,Calm,Calm,-,N/A,,Overcast,0,2012-03-09 11:14:00
5:21 AM,62.6,62.6,100,30.16,10.0,Calm,Calm,-,N/A,,Overcast,0,2012-03-09 11:21:00
5:38 AM,62.6,62.6,100,30.17,9.0,Calm,Calm,-,N/A,,Overcast,0,2012-03-09 11:38:00
5:47 AM,62.6,62.6,100,30.17,6.0,Calm,Calm,-,N/A,,Overcast,0,2012-03-09 11:47:00
5:51 AM,62.6,62.6,100,30.17,5.0,Calm,Calm,-,N/A,,Overcast,0,2012-03-09 11:51:00
5:55 AM,62.6,62.2,99,30.17,6.0,Calm,Calm,-,N/A,,Overcast,0,2012-03-09 11:55:00
6:25 AM,62.6,62.6,100,30.18,7.0,ESE,3.5,-,N/A,,Overcast,120,2012-03-09 12:25:00
6:35 AM,62.6,62.6,100,30.18,7.0,Calm,Calm,-,N/A,,Overcast,0,2012-03-09 12:35:00
6:55 AM,63.1,62.8,99,30.19,8.0,Calm,Calm,-,N/A,,Overcast,0,2012-03-09 12:55:00
6:58 AM,62.6,62.6,100,30.19,8.0,Calm,Calm,-,N/A,,Overcast,0,2012-03-09 12:58:00
7:12 AM,64.4,62.6,94,30.19,4.0,NNW,3.5,-,N/A,,Overcast,330,2012-03-09 13:12:00
7:17 AM,64.4,64.4,100,30.20,2.5,NW,5.8,-,N/A,,Overcast,320,2012-03-09 13:17:00
7:18 AM,64.4,64.4,100,30.20,2.5,NW,4.6,-,N/A,,Overcast,320,2012-03-09 13:18:00
7:19 AM,64.4,64.4,100,30.20,2.5,NNW,4.6,-,N/A,,Light Drizzle,330,2012-03-09 13:19:00
7:20 AM,64.4,64.4,100,30.20,2.5,NNW,3.5,-,N/A,,Light Drizzle,330,2012-03-09 13:20:00
7:23 AM,64.4,64.4,100,30.20,2.5,Calm,Calm,-,N/A,,Light Drizzle,0,2012-03-09 13:23:00
7:26 AM,64.4,64.4,100,30.20,3.0,Calm,Calm,-,N/A,,Light Drizzle,0,2012-03-09 13:26:00
7:30 AM,64.4,64.4,100,30.20,5.0,NW,3.5,-,N/A,,Light Drizzle,310,2012-03-09 13:30:00
7:31 AM,64.4,64.4,100,30.20,3.0,NW,3.5,-,N/A,,Overcast,310,2012-03-09 13:31:00
7:36 AM,64.4,64.4,100,30.20,3.0,WNW,3.5,-,N/A,Rain,Light Rain,300,2012-03-09 13:36:00
7:43 AM,64.4,62.6,94,30.21,5.0,WNW,5.8,-,N/A,Rain,Light Rain,290,2012-03-09 13:43:00
7:45 AM,64.4,62.6,94,30.21,4.0,WNW,5.8,-,N/A,Rain,Light Rain,300,2012-03-09 13:45:00
7:48 AM,64.4,62.6,94,30.21,4.0,NW,6.9,-,N/A,Rain,Light Rain,310,2012-03-09 13:48:00
7:49 AM,64.4,62.6,94,30.21,4.0,NW,8.1,-,N/A,Rain,Light Rain,320,2012-03-09 13:49:00
7:55 AM,64.0,63.7,99,30.21,4.0,NW,8.1,-,0.02,Rain,Rain,320,2012-03-09 13:55:00
7:58 AM,64.4,64.4,100,30.21,4.0,NW,8.1,-,N/A,Rain,Heavy Rain,320,2012-03-09 13:58:00
8:00 AM,64.4,64.4,100,30.21,4.0,NNW,6.9,-,N/A,Rain,Rain,330,2012-03-09 14:00:00
8:43 AM,64.4,62.6,94,30.22,10.0,North,16.1,-,N/A,Rain,Light Rain,10,2012-03-09 14:43:00
8:53 AM,62.6,60.8,94,30.22,10.0,NE,12.7,-,N/A,Rain,Light Rain,40,2012-03-09 14:53:00
8:55 AM,63.1,61.5,94,30.22,10.0,NE,12.7,-,0.07,Rain,Light Rain,40,2012-03-09 14:55:00
8:58 AM,62.6,60.8,94,30.22,10.0,NE,12.7,-,N/A,Rain,Light Rain,40,2012-03-09 14:58:00
9:06 AM,62.6,60.8,94,30.22,10.0,NE,10.4,-,N/A,,Mostly Cloudy,50,2012-03-09 15:06:00
9:55 AM,62.8,61.0,94,30.22,10.0,NE,6.9,-,0.00,,Mostly Cloudy,40,2012-03-09 15:55:00
10:19 AM,62.6,60.8,94,30.23,10.0,North,6.9,-,N/A,,Mostly Cloudy,10,2012-03-09 16:19:00
10:20 AM,62.6,60.8,94,30.23,10.0,North,6.9,-,N/A,,Light Drizzle,10,2012-03-09 16:20:00
10:21 AM,62.6,60.8,94,30.23,10.0,NNE,6.9,-,N/A,,Light Drizzle,20,2012-03-09 16:21:00
10:34 AM,62.6,60.8,94,30.24,10.0,North,4.6,-,N/A,Rain,Light Rain,360,2012-03-09 16:34:00
10:53 AM,62.6,60.8,94,30.24,10.0,North,3.5,-,N/A,Rain,Light Rain,360,2012-03-09 16:53:00
10:55 AM,63.3,61.0,92,30.23,10.0,Calm,Calm,-,0.00,Rain,Light Rain,0,2012-03-09 16:55:00
11:22 AM,64.4,60.8,88,30.22,10.0,NE,3.5,-,N/A,Rain,Light Rain,50,2012-03-09 17:22:00
11:23 AM,64.4,60.8,88,30.22,10.0,NE,3.5,-,N/A,Rain,Light Rain,40,2012-03-09 17:23:00
11:27 AM,64.4,60.8,88,30.22,10.0,NE,3.5,-,N/A,Rain,Light Rain,50,2012-03-09 17:27:00
11:32 AM,64.4,60.8,88,30.22,10.0,North,3.5,-,N/A,Rain,Light Rain,360,2012-03-09 17:32:00
11:33 AM,64.4,60.8,88,30.22,10.0,Calm,Calm,-,N/A,Rain,Light Rain,0,2012-03-09 17:33:00
11:55 AM,64.0,62.1,93,30.22,10.0,NW,4.6,-,0.01,Rain,Light Rain,320,2012-03-09 17:55:00
12:09 PM,64.4,62.6,94,30.22,10.0,NW,3.5,-,N/A,Rain,Light Rain,320,2012-03-09 18:09:00
12:10 PM,64.4,62.6,94,30.21,10.0,NW,3.5,-,N/A,Rain,Light Rain,320,2012-03-09 18:10:00
12:19 PM,64.4,62.6,94,30.22,10.0,NW,6.9,-,N/A,Rain,Light Rain,320,2012-03-09 18:19:00
12:36 PM,64.4,62.6,94,30.20,10.0,NNW,5.8,-,N/A,Rain,Light Rain,330,2012-03-09 18:36:00
12:43 PM,64.4,60.8,88,30.19,10.0,Calm,Calm,-,N/A,Rain,Light Rain,0,2012-03-09 18:43:00
12:48 PM,64.4,62.6,94,30.19,10.0,Calm,Calm,-,N/A,Rain,Light Rain,0,2012-03-09 18:48:00
12:51 PM,64.4,62.6,94,30.19,10.0,North,4.6,-,N/A,Rain,Light Rain,360,2012-03-09 18:51:00
12:53 PM,64.4,62.6,94,30.19,10.0,NNE,4.6,-,N/A,Rain,Light Rain,20,2012-03-09 18:53:00
12:55 PM,64.4,61.7,91,30.19,10.0,North,5.8,-,0.01,Rain,Light Rain,350,2012-03-09 18:55:00
1:03 PM,64.4,62.6,94,30.19,10.0,NNW,8.1,-,N/A,Rain,Light Rain,340,2012-03-09 19:03:00
1:13 PM,64.4,62.6,94,30.19,10.0,North,4.6,-,N/A,,Light Drizzle,350,2012-03-09 19:13:00
1:30 PM,64.4,62.6,94,30.18,10.0,NNE,8.1,-,N/A,Rain,Light Rain,20,2012-03-09 19:30:00
1:31 PM,64.4,62.6,94,30.18,10.0,North,6.9,-,N/A,Rain,Light Rain,10,2012-03-09 19:31:00
1:32 PM,64.4,62.6,94,30.18,10.0,North,6.9,-,N/A,,Light Drizzle,10,2012-03-09 19:32:00
1:34 PM,64.4,62.6,94,30.18,10.0,NNE,5.8,-,N/A,,Light Drizzle,20,2012-03-09 19:34:00
1:55 PM,64.9,61.9,90,30.19,10.0,NNW,8.1,-,0.00,,Light Drizzle,330,2012-03-09 19:55:00
2:05 PM,64.4,62.6,94,30.20,10.0,NW,6.9,-,N/A,,Mostly Cloudy,310,2012-03-09 20:05:00
2:06 PM,64.4,62.6,94,30.20,10.0,WNW,8.1,-,N/A,,Mostly Cloudy,300,2012-03-09 20:06:00
2:08 PM,64.4,62.6,94,30.20,10.0,NW,8.1,-,N/A,,Mostly Cloudy,310,2012-03-09 20:08:00
2:14 PM,64.4,62.6,94,30.21,10.0,WNW,8.1,-,N/A,,Mostly Cloudy,300,2012-03-09 20:14:00
2:15 PM,64.4,62.6,94,30.21,10.0,NW,6.9,-,N/A,,Mostly Cloudy,310,2012-03-09 20:15:00
2:19 PM,64.4,62.6,94,30.20,10.0,WNW,5.8,-,N/A,,Overcast,300,2012-03-09 20:19:00
2:22 PM,64.4,62.6,94,30.20,10.0,NNW,5.8,-,N/A,,Overcast,330,2012-03-09 20:22:00
2:23 PM,64.4,62.6,94,30.20,10.0,NW,6.9,-,N/A,,Overcast,320,2012-03-09 20:23:00
2:55 PM,65.7,61.2,85,30.20,10.0,NNW,8.1,-,0.00,,Overcast,340,2012-03-09 20:55:00
3:55 PM,65.3,61.0,86,30.20,10.0,NNW,5.8,-,N/A,,Overcast,330,2012-03-09 21:55:00
4:03 PM,64.4,60.8,88,30.19,10.0,NNW,5.8,-,N/A,,Mostly Cloudy,330,2012-03-09 22:03:00
4:08 PM,64.4,60.8,88,30.19,10.0,NW,5.8,-,N/A,,Mostly Cloudy,320,2012-03-09 22:08:00
4:24 PM,64.4,60.8,88,30.20,10.0,NNW,9.2,-,N/A,,Mostly Cloudy,330,2012-03-09 22:24:00
4:34 PM,64.4,59.0,83,30.20,10.0,NNW,9.2,-,N/A,,Overcast,330,2012-03-09 22:34:00
4:44 PM,64.4,59.0,83,30.21,10.0,NNW,11.5,-,N/A,,Overcast,340,2012-03-09 22:44:00
4:55 PM,63.0,59.5,89,30.22,10.0,NNW,12.7,-,0.01,,Overcast,330,2012-03-09 22:55:00
5:05 PM,62.6,59.0,88,30.22,10.0,NNW,10.4,-,N/A,,Overcast,330,2012-03-09 23:05:00
5:11 PM,62.6,59.0,88,30.22,10.0,NNW,12.7,-,N/A,,Overcast,330,2012-03-09 23:11:00
5:17 PM,60.8,59.0,94,30.23,7.0,NNW,12.7,-,N/A,,Light Drizzle,330,2012-03-09 23:17:00
5:24 PM,60.8,59.0,94,30.23,9.0,NNW,12.7,-,N/A,,Overcast,330,2012-03-09 23:24:00
5:27 PM,60.8,59.0,94,30.23,10.0,NNW,12.7,-,N/A,,Overcast,330,2012-03-09 23:27:00
5:51 PM,60.8,57.2,88,30.24,10.0,North,11.5,-,N/A,,Overcast,350,2012-03-09 23:51:00
5:55 PM,60.4,57.0,88,30.23,10.0,North,12.7,-,0.00,,Overcast,350,2012-03-09 23:55:00
6:42 PM,60.8,55.4,82,30.24,10.0,North,12.7,-,N/A,,Overcast,350,2012-03-10 00:42:00
6:48 PM,60.8,55.4,82,30.24,10.0,North,11.5,-,N/A,,Mostly Cloudy,350,2012-03-10 00:48:00
6:50 PM,59.0,55.4,88,30.24,10.0,North,11.5,-,N/A,,Mostly Cloudy,350,2012-03-10 00:50:00
6:55 PM,59.7,55.0,84,30.24,10.0,North,12.7,-,N/A,,Mostly Cloudy,350,2012-03-10 00:55:00
7:55 PM,57.2,49.1,74,30.28,10.0,North,12.7,23.0,N/A,,Clear,350,2012-03-10 01:55:00
8:55 PM,54.9,42.3,63,30.28,10.0,North,10.4,-,N/A,,Clear,360,2012-03-10 02:55:00
9:55 PM,53.6,40.5,61,30.29,10.0,North,8.1,-,N/A,,Clear,360,2012-03-10 03:55:00
10:55 PM,52.3,37.6,57,30.28,10.0,North,6.9,-,N/A,,Clear,350,2012-03-10 04:55:00
11:55 PM,50.5,36.5,59,30.28,10.0,North,6.9,-,N/A,,Clear,10,2012-03-10 05:55:00